EN

Hourly Weather Amalfi

Today, 21 January, Thursday

Time Temperature Precipitation Wind Pressure Humidity
00:00 +16°C° 0.2 mm 0 mps 630 mmHg 97%
01:00 +15°C° 0 mm 0 mps 630 mmHg 98%
02:00 +15°C° 0.1 mm 0 mps 630 mmHg 98%
03:00 +15°C° 0.1 mm 0 mps 629 mmHg 98%
04:00 +15°C° 0.1 mm 0 mps 629 mmHg 98%
05:00 +15°C° 0.1 mm 0 mps 630 mmHg 97%
06:00 +15°C° 0.1 mm 0 mps 630 mmHg 97%
07:00 +15°C° 0.1 mm 0 mps 630 mmHg 97%
08:00 +17°C° 0.1 mm 0 mps 631 mmHg 87%
09:00 +19°C° 0.1 mm 0 mps 632 mmHg 78%
10:00 +23°C° 0.1 mm 1 mps 633 mmHg 68%
11:00 +24°C° 0.1 mm 1 mps 632 mmHg 66%
12:00 +24°C° 0.1 mm 1 mps 632 mmHg 64%
13:00 +25°C° 0.1 mm 1 mps 631 mmHg 62%
14:00 +24°C° 0.2 mm 1 mps 631 mmHg 66%
15:00 +24°C° 0.2 mm 1 mps 630 mmHg 71%
16:00 +23°C° 0.2 mm 1 mps 629 mmHg 76%
17:00 +22°C° 0.1 mm 1 mps 629 mmHg 82%
18:00 +20°C° 0.1 mm 1 mps 629 mmHg 89%
19:00 +16°C° 0.1 mm 0 mps 629 mmHg 96%
20:00 +16°C° 0.1 mm 0 mps 629 mmHg 96%
21:00 +16°C° 0.1 mm 0 mps 630 mmHg 96%
22:00 +16°C° 0.1 mm 0 mps 630 mmHg 97%
23:00 +16°C° 0.1 mm 0 mps 630 mmHg 96%

Tomorrow, 22 January, Friday

Time Temperature Precipitation Wind Pressure Humidity
00:00 +16°C° 0.1 mm 1 mps 630 mmHg 96%
01:00 +16°C° 0.1 mm 1 mps 630 mmHg 96%
02:00 +16°C° 0 mm 1 mps 629 mmHg 96%
03:00 +15°C° 0 mm 1 mps 629 mmHg 96%
04:00 +15°C° 0 mm 1 mps 629 mmHg 97%
05:00 +15°C° 0 mm 1 mps 629 mmHg 96%
06:00 +15°C° 0 mm 1 mps 630 mmHg 96%
07:00 +15°C° 0 mm 1 mps 630 mmHg 95%
08:00 +19°C° 0 mm 1 mps 631 mmHg 84%
09:00 +22°C° 0 mm 1 mps 632 mmHg 73%
10:00 +24°C° 0 mm 1 mps 633 mmHg 62%
11:00 +24°C° 0.2 mm 1 mps 633 mmHg 63%
12:00 +24°C° 0.2 mm 1 mps 632 mmHg 65%
13:00 +24°C° 0.2 mm 2 mps 632 mmHg 66%
14:00 +23°C° 0.5 mm 1 mps 631 mmHg 74%
15:00 +22°C° 0.5 mm 1 mps 630 mmHg 81%
16:00 +22°C° 0.5 mm 1 mps 629 mmHg 89%
17:00 +20°C° 0.3 mm 1 mps 629 mmHg 92%
18:00 +19°C° 0.3 mm 1 mps 630 mmHg 95%
19:00 +16°C° 0.3 mm 0 mps 630 mmHg 98%
20:00 +18°C° 0.5 mm 1 mps 630 mmHg 98%
21:00 +16°C° 0.5 mm 1 mps 630 mmHg 98%
22:00 +16°C° 0.5 mm 1 mps 631 mmHg 98%
23:00 +16°C° 0.1 mm 1 mps 631 mmHg 98%

Day after tomorrow, 23 January, Saturday

Time Temperature Precipitation Wind Pressure Humidity
00:00 +15°C° 0.1 mm 1 mps 631 mmHg 97%
01:00 +15°C° 0.1 mm 1 mps 630 mmHg 97%
02:00 +15°C° 0 mm 1 mps 630 mmHg 97%
03:00 +15°C° 0 mm 1 mps 630 mmHg 97%
04:00 +15°C° 0 mm 1 mps 630 mmHg 97%
05:00 +15°C° 0 mm 1 mps 630 mmHg 97%
06:00 +15°C° 0 mm 1 mps 631 mmHg 96%
07:00 +15°C° 0 mm 1 mps 631 mmHg 96%
08:00 +19°C° 0 mm 1 mps 632 mmHg 85%
09:00 +21°C° 0 mm 1 mps 633 mmHg 74%
10:00 +24°C° 0 mm 1 mps 634 mmHg 64%
11:00 +24°C° 0.1 mm 1 mps 633 mmHg 66%
12:00 +24°C° 0.1 mm 1 mps 632 mmHg 69%
13:00 +24°C° 0.1 mm 1 mps 631 mmHg 71%
14:00 +23°C° 0.8 mm 1 mps 631 mmHg 77%
15:00 +22°C° 0.8 mm 1 mps 630 mmHg 83%
16:00 +22°C° 0.8 mm 1 mps 629 mmHg 89%
17:00 +20°C° 0.4 mm 1 mps 629 mmHg 92%
18:00 +17°C° 0.4 mm 0 mps 629 mmHg 95%
19:00 +16°C° 0.4 mm 0 mps 630 mmHg 98%
20:00 +16°C° 0.2 mm 0 mps 630 mmHg 98%
21:00 +16°C° 0.2 mm 1 mps 630 mmHg 98%
22:00 +16°C° 0.2 mm 1 mps 631 mmHg 98%
23:00 +16°C° 0 mm 1 mps 630 mmHg 98%

24 January, Sunday

Time Temperature Precipitation Wind Pressure Humidity
00:00 +15°C° 0 mm 1 mps 630 mmHg 98%
01:00 +15°C° 0 mm 1 mps 630 mmHg 97%
02:00 +15°C° 0 mm 1 mps 629 mmHg 97%
03:00 +15°C° 0 mm 1 mps 629 mmHg 97%
04:00 +15°C° 0 mm 1 mps 629 mmHg 97%
05:00 +15°C° 0 mm 1 mps 629 mmHg 97%
06:00 +15°C° 0 mm 1 mps 630 mmHg 96%
07:00 +15°C° 0 mm 1 mps 630 mmHg 96%
08:00 +18°C° 0 mm 1 mps 631 mmHg 88%
09:00 +18°C° 0 mm 0 mps 632 mmHg 81%
10:00 +20°C° 0 mm 0 mps 632 mmHg 73%
11:00 +23°C° 0.6 mm 1 mps 632 mmHg 76%
12:00 +23°C° 0.6 mm 1 mps 631 mmHg 79%
13:00 +23°C° 0.6 mm 1 mps 630 mmHg 82%
14:00 +22°C° 1 mm 1 mps 630 mmHg 85%
15:00 +22°C° 1 mm 1 mps 629 mmHg 88%
16:00 +22°C° 1 mm 1 mps 628 mmHg 91%
17:00 +20°C° 0.2 mm 1 mps 628 mmHg 93%
18:00 +17°C° 0.2 mm 0 mps 628 mmHg 96%
19:00 +16°C° 0.2 mm 0 mps 629 mmHg 98%
20:00 +16°C° 0.1 mm 0 mps 629 mmHg 98%
21:00 +18°C° 0.1 mm 1 mps 629 mmHg 98%
22:00 +16°C° 0.1 mm 1 mps 630 mmHg 97%
23:00 +16°C° 0 mm 1 mps 629 mmHg 97%

25 January, Monday

Time Temperature Precipitation Wind Pressure Humidity
00:00 +16°C° 0 mm 1 mps 629 mmHg 97%
01:00 +16°C° 0 mm 1 mps 629 mmHg 96%
02:00 +16°C° 0 mm 1 mps 629 mmHg 96%
03:00 +15°C° 0 mm 1 mps 628 mmHg 96%
04:00 +15°C° 0 mm 1 mps 628 mmHg 96%
05:00 +15°C° 0 mm 1 mps 629 mmHg 95%
06:00 +15°C° 0 mm 1 mps 629 mmHg 95%
07:00 +16°C° 0 mm 1 mps 630 mmHg 94%
08:00 +19°C° 0.2 mm 1 mps 630 mmHg 88%
09:00 +19°C° 0.2 mm 0 mps 631 mmHg 83%
10:00 +21°C° 0.2 mm 0 mps 632 mmHg 77%
11:00 +23°C° 0.7 mm 1 mps 632 mmHg 76%
12:00 +24°C° 0.7 mm 1 mps 631 mmHg 75%
13:00 +24°C° 0.7 mm 1 mps 631 mmHg 74%
14:00 +24°C° 0.3 mm 1 mps 630 mmHg 75%
15:00 +23°C° 0.3 mm 1 mps 629 mmHg 76%
16:00 +23°C° 0.3 mm 1 mps 629 mmHg 78%
17:00 +22°C° 0.2 mm 1 mps 629 mmHg 84%
18:00 +18°C° 0.2 mm 0 mps 629 mmHg 91%
19:00 +17°C° 0.2 mm 0 mps 628 mmHg 98%
20:00 +16°C° 0.2 mm 0 mps 629 mmHg 98%
21:00 +16°C° 0.2 mm 0 mps 629 mmHg 98%
22:00 +16°C° 0.2 mm 0 mps 630 mmHg 97%
23:00 +18°C° 0.1 mm 1 mps 629 mmHg 97%

26 January, Tuesday

Time Temperature Precipitation Wind Pressure Humidity
00:00 +16°C° 0.1 mm 1 mps 629 mmHg 97%
01:00 +16°C° 0.1 mm 1 mps 629 mmHg 97%
02:00 +16°C° 0 mm 1 mps 629 mmHg 97%
03:00 +16°C° 0 mm 1 mps 629 mmHg 97%
04:00 +15°C° 0 mm 1 mps 629 mmHg 97%
05:00 +16°C° 0 mm 1 mps 629 mmHg 96%
06:00 +16°C° 0 mm 1 mps 630 mmHg 96%
07:00 +15°C° 0 mm 0 mps 630 mmHg 95%
08:00 +17°C° 0 mm 0 mps 631 mmHg 87%
09:00 +21°C° 0 mm 1 mps 632 mmHg 78%
10:00 +24°C° 0 mm 1 mps 633 mmHg 69%
11:00 +24°C° 0.4 mm 1 mps 632 mmHg 71%
12:00 +24°C° 0.4 mm 1 mps 632 mmHg 73%
13:00 +24°C° 0.4 mm 1 mps 631 mmHg 75%
14:00 +23°C° 0.7 mm 1 mps 630 mmHg 80%
15:00 +22°C° 0.7 mm 1 mps 629 mmHg 84%
16:00 +22°C° 0.7 mm 1 mps 629 mmHg 89%
17:00 +21°C° 0.1 mm 1 mps 629 mmHg 92%
18:00 +17°C° 0.1 mm 0 mps 629 mmHg 95%
19:00 +16°C° 0.1 mm 0 mps 629 mmHg 98%
20:00 +16°C° 0.1 mm 0 mps 629 mmHg 98%
21:00 +18°C° 0.1 mm 1 mps 630 mmHg 97%
22:00 +18°C° 0.1 mm 1 mps 630 mmHg 97%
23:00 +16°C° 0 mm 1 mps 630 mmHg 97%
Show more